YACHTS Weather Reports


Display with metric or nautical units.
time (UTC)temp
F
wind
direction
speed
MPH
gust
MPH
rain 1hr
in
rain 24hr
in
rain mn
in
humidity
%
barometer
mb
20260903233202 56 204 4.0 18.0 0.01 0.68 0.68 91 1008.0
20260903232649 57 228 1.0 18.0 0.00 0.68 0.68 91 1008.0
20260903232136 57 124 5.0 15.0 0.00 0.68 0.68 91 1008.1
20260903231623 57 89 4.0 11.0 0.00 0.67 0.67 91 1008.2
20260903231110 57 161 6.0 11.0 0.00 0.67 0.67 91 1008.2
20260903230557 58 214 0.0 17.0 0.00 0.67 0.67 91 1008.2
20260903230044 58 238 4.0 17.0 0.00 0.67 0.67 91 1008.3
20260903225531 58 243 3.0 17.0 0.00 0.70 0.67 91 1008.3
20260903225018 58 253 4.0 13.0 0.00 0.70 0.67 91 1008.3
20260903224505 58 246 8.0 13.0 0.00 0.70 0.67 91 1008.4
20260903223952 58 257 5.0 16.0 0.00 0.70 0.67 92 1008.3
20260903222926 58 270 2.0 16.0 0.00 0.70 0.67 92 1008.3
20260903222413 57 158 3.0 12.0 0.00 0.70 0.67 92 1008.2
20260903221347 58 246 6.0 20.0 0.00 0.70 0.67 92 1008.4
20260903220321 57 228 7.0 12.0 0.00 0.70 0.67 92 1008.3
20260903215808 58 217 6.0 12.0 0.00 0.74 0.67 92 1008.3
20260903215255 58 127 3.0 11.0 0.00 0.74 0.67 92 1008.4
20260903214742 58 194 4.0 11.0 0.00 0.74 0.67 92 1008.4
20260903213716 58 170 0.0 22.0 0.01 0.74 0.67 93 1008.5
20260903213203 58 196 5.0 22.0 0.01 0.74 0.67 93 1008.4
20260903212650 58 137 8.0 22.0 0.02 0.74 0.67 93 1008.5
20260903212137 58 235 5.0 16.0 0.02 0.74 0.67 93 1008.5
20260903211624 58 240 0.0 12.0 0.06 0.74 0.67 93 1008.5
20260903205532 57 245 3.0 15.0 0.06 0.77 0.67 94 1008.4
20260903204506 56 296 2.0 11.0 0.06 0.77 0.67 93 1008.5
20260903203953 56 246 4.0 11.0 0.06 0.77 0.67 93 1008.5
20260903203440 56 131 3.0 13.0 0.05 0.77 0.66 94 1008.6
20260903202927 56 271 0.0 13.0 0.04 0.77 0.66 93 1008.8
20260903202414 57 194 2.0 13.0 0.04 0.77 0.65 93 1008.7
20260903201348 57 277 5.0 12.0 0.00 0.77 0.62 93 1008.8
20260903200322 58 130 3.0 16.0 0.02 0.77 0.61 94 1008.6
20260903194743 57 148 0.0 11.0 0.11 0.84 0.61 94 1008.9
20260903193717 55 240 0.0 9.0 0.16 0.84 0.61 94 1008.9
20260903192651 54 204 0.0 9.0 0.17 0.84 0.61 94 1008.9
20260903192138 54 222 0.0 7.0 0.17 0.84 0.61 94 1009.0
20260903190046 53 102 3.0 15.0 0.20 0.84 0.59 93 1009.5
20260903185021 53 154 1.0 5.0 0.16 0.74 0.54 93 1009.4
20260903183954 53 0 0.0 0.0 0.12 0.74 0.50 93 1009.4
20260903183441 53 0 0.0 0.0 0.08 0.74 0.49 93 1009.4
20260903182927 53 0 0.0 0.0 0.09 0.74 0.45 93 1009.4
20260903182415 53 0 0.0 10.0 0.09 0.74 0.44 93 1009.5
20260903181901 53 0 0.0 10.0 0.07 0.74 0.43 93 1009.4
20260903181349 53 172 0.0 10.0 0.07 0.74 0.42 93 1009.5
20260903180835 53 236 0.0 7.0 0.06 0.74 0.40 93 1009.4
20260903180322 53 154 0.0 7.0 0.06 0.74 0.39 93 1009.3
20260903175809 54 189 0.0 5.0 0.05 0.76 0.39 93 1009.2
20260903175257 54 245 0.0 11.0 0.05 0.76 0.38 92 1009.2
20260903174744 54 267 0.0 11.0 0.05 0.76 0.38 92 1009.2
20260903174231 53 204 1.0 11.0 0.05 0.76 0.38 92 1009.3
20260903173717 55 282 0.0 14.0 0.04 0.76 0.37 92 1009.3
20260903173205 54 165 4.0 14.0 0.04 0.76 0.37 92 1009.3
20260903172651 55 176 1.0 14.0 0.02 0.76 0.36 92 1009.2
20260903172139 55 0 0.0 12.0 0.02 0.76 0.36 92 1009.2
20260903171625 55 225 5.0 12.0 0.01 0.76 0.35 92 1009.1
20260903171112 56 85 4.0 16.0 0.01 0.76 0.34 92 1009.0
20260903170559 56 245 4.0 16.0 0.01 0.76 0.33 91 1009.2
20260903170047 56 148 3.0 16.0 0.01 0.76 0.33 92 1009.1
20260903165533 56 229 1.0 14.0 0.01 0.83 0.33 92 1009.1
20260903165020 57 261 7.0 14.0 0.01 0.83 0.33 92 1008.9
20260903164508 57 238 3.0 12.0 0.01 0.83 0.33 92 1008.7
20260903163954 57 155 4.0 14.0 0.01 0.83 0.33 92 1008.7
20260903163441 57 218 1.0 14.0 0.01 0.83 0.33 92 1008.6
20260903162929 57 247 2.0 14.0 0.01 0.83 0.33 92 1008.7
20260903162417 57 273 3.0 17.0 0.01 0.83 0.33 92 1008.8
20260903161902 57 144 4.0 17.0 0.01 0.83 0.33 93 1008.9
20260903161349 57 172 1.0 17.0 0.01 0.83 0.33 93 1009.0
20260903155810 56 266 1.0 18.0 0.00 0.90 0.32 93 1009.2
20260903155257 56 158 5.0 18.0 0.00 0.90 0.32 93 1009.2
20260903154745 57 291 4.0 9.0 0.00 0.90 0.32 93 1009.3
20260903154231 56 148 4.0 26.0 0.00 0.90 0.32 93 1009.1
20260903153718 57 249 5.0 26.0 0.00 0.90 0.32 93 1009.1
20260903153206 57 267 8.0 26.0 0.00 0.90 0.32 93 1009.0
20260903152723 57 240 3.0 19.0 0.00 0.90 0.32 93 1009.0
20260903152652 57 240 3.0 19.0 0.00 0.90 0.32 93 1009.0
20260903152139 55 205 2.0 13.0 0.00 0.90 0.32 94 1008.9
20260903151626 55 61 0.0 13.0 0.00 0.90 0.32 94 1009.0
20260903151113 55 267 0.0 13.0 0.00 0.90 0.32 93 1009.0
20260903150600 55 170 0.0 5.0 0.00 0.90 0.32 93 1009.0
20260903150047 55 130 0.0 17.0 0.00 0.90 0.32 93 1009.0
20260903145534 55 229 2.0 17.0 0.00 0.95 0.32 93 1009.0
20260903145021 55 238 2.0 9.0 0.00 0.95 0.32 93 1008.9
20260903144508 55 204 0.0 4.0 0.00 0.95 0.32 93 1008.8
20260903143955 56 204 5.0 20.0 0.00 0.95 0.32 93 1008.9
20260903143442 56 175 4.0 20.0 0.00 0.95 0.32 93 1008.9
20260903142929 56 162 8.0 20.0 0.00 0.95 0.32 93 1008.9
20260903142416 56 186 3.0 17.0 0.00 0.95 0.32 93 1008.8
20260903141904 56 175 4.0 17.0 0.00 0.95 0.32 93 1008.9
20260903141350 56 233 0.0 7.0 0.00 0.95 0.32 93 1008.9
20260903140837 56 184 1.0 26.0 0.00 0.95 0.32 93 1008.9
20260903140324 56 183 4.0 26.0 0.00 0.95 0.32 93 1008.8
20260903135811 56 162 5.0 26.0 0.00 0.96 0.32 94 1008.9
20260903135258 56 169 2.0 10.0 0.00 0.96 0.32 93 1008.7
20260903134746 56 275 0.0 19.0 0.00 0.96 0.32 94 1008.8
20260903134232 57 169 2.0 19.0 0.00 0.96 0.32 94 1008.8
20260903133719 56 175 1.0 19.0 0.00 0.96 0.32 94 1008.8
20260903133206 56 242 2.0 12.0 0.00 0.96 0.32 94 1008.8
20260903132653 57 210 2.0 12.0 0.01 0.96 0.32 94 1008.8
20260903132140 56 208 0.0 14.0 0.01 0.96 0.32 93 1008.8
20260903131627 57 175 3.0 14.0 0.01 0.96 0.32 93 1008.7
20260903131114 56 176 1.0 14.0 0.01 0.96 0.32 94 1008.8
20260903130601 55 182 3.0 10.0 0.01 0.96 0.32 94 1008.7
20260903130048 56 268 1.0 21.0 0.01 0.96 0.32 94 1008.9
20260903125536 56 238 0.0 21.0 0.06 0.95 0.32 94 1008.9
20260903125022 55 5 0.0 21.0 0.06 0.95 0.32 94 1008.9
20260903124509 56 32 3.0 15.0 0.08 0.95 0.32 94 1008.9
20260903123956 55 218 5.0 15.0 0.08 0.95 0.32 94 1008.8
20260903123443 55 173 0.0 14.0 0.13 0.95 0.32 94 1008.9
20260903122930 55 212 2.0 14.0 0.15 0.95 0.32 94 1008.8
20260903122417 56 211 4.0 12.0 0.15 0.95 0.31 94 1008.8
20260903121904 55 177 3.0 12.0 0.25 0.95 0.31 94 1008.9
20260903121351 55 119 0.0 12.0 0.25 0.95 0.31 94 1008.9
20260903120838 55 263 3.0 12.0 0.25 0.95 0.31 94 1009.0
20260903120325 55 270 5.0 12.0 0.25 0.95 0.31 94 1009.1
20260903115812 55 0 0.0 0.0 0.20 0.70 0.31 93 1009.3
20260903114746 54 197 2.0 13.0 0.19 0.70 0.26 93 1009.4
20260903114233 55 247 3.0 13.0 0.19 0.70 0.25 93 1009.5
20260903113720 56 284 0.0 9.0 0.18 0.70 0.22 93 1009.5
20260903113207 55 261 5.0 16.0 0.18 0.70 0.19 93 1009.6
20260903112654 55 162 3.0 16.0 0.15 0.70 0.18 93 1009.6
20260903111628 56 221 2.0 14.0 0.05 0.70 0.13 92 1009.4
20260903111115 56 246 5.0 20.0 0.05 0.70 0.07 92 1009.3
20260903110602 55 284 5.0 20.0 0.05 0.70 0.06 92 1009.0
20260903110049 56 75 2.0 20.0 0.05 0.70 0.06 92 1009.1
20260903105536 56 161 6.0 12.0 0.05 0.65 0.06 92 1009.1
20260903105023 56 285 5.0 12.0 0.05 0.65 0.06 92 1009.0
20260903104510 56 254 2.0 11.0 0.04 0.65 0.06 92 1009.0
20260903103957 57 0 0.0 10.0 0.04 0.65 0.05 92 1009.1
20260903103444 57 236 4.0 12.0 0.00 0.65 0.02 92 1009.3
20260903102931 57 238 1.0 12.0 0.01 0.65 0.01 92 1009.2
20260903102454 56 116 2.0 15.0 0.01 0.65 0.01 92 1009.3
20260903102418 57 261 2.0 12.0 0.01 0.65 0.01 92 1009.2
20260903101905 57 148 2.0 15.0 0.01 0.65 0.01 92 1009.1
20260903101352 56 116 2.0 15.0 0.01 0.65 0.01 92 1009.3
20260903100840 57 141 5.0 15.0 0.01 0.65 0.01 92 1009.3
20260903095813 56 275 2.0 21.0 0.01 0.64 0.01 92 1009.2
20260903095300 56 253 3.0 21.0 0.01 0.64 0.01 92 1009.2
20260903094747 57 245 6.0 16.0 0.01 0.64 0.01 92 1009.3
20260903094234 56 266 2.0 9.0 0.01 0.64 0.01 92 1009.3
20260903093721 56 236 3.0 17.0 0.01 0.64 0.01 92 1009.3
20260903093208 57 354 4.0 17.0 0.01 0.64 0.01 92 1009.3
20260903092655 56 176 4.0 17.0 0.00 0.64 0.01 92 1009.3
20260903092142 57 288 1.0 16.0 0.00 0.64 0.00 92 1009.4
20260903091629 57 203 1.0 16.0 0.00 0.64 0.00 92 1009.4
20260903091116 57 190 3.0 13.0 0.00 0.64 0.00 92 1009.5
20260903090603 57 238 3.0 13.0 0.00 0.64 0.00 92 1009.6
20260903090050 57 173 2.0 12.0 0.00 0.64 0.00 92 1009.6
20260903085537 57 107 4.0 11.0 0.00 0.64 0.00 92 1009.6
20260903085024 57 288 2.0 16.0 0.00 0.64 0.00 92 1009.6
20260903084511 56 133 4.0 16.0 0.00 0.64 0.00 92 1009.6
20260903083958 56 312 3.0 16.0 0.00 0.64 0.00 92 1009.6
20260903083445 57 259 2.0 13.0 0.00 0.64 0.00 92 1009.7
20260903082932 56 95 2.0 13.0 0.00 0.64 0.00 92 1009.7
20260903081906 57 256 4.0 13.0 0.00 0.64 0.00 92 1009.7
20260903081353 56 277 2.0 13.0 0.00 0.64 0.00 92 1009.7
20260903080840 56 203 5.0 13.0 0.00 0.64 0.00 92 1009.7
20260903080327 56 278 0.0 6.0 0.00 0.64 0.00 92 1009.7
20260903075814 56 263 2.0 13.0 0.00 0.64 0.00 92 1009.7
20260903075301 56 250 0.0 13.0 0.00 0.64 0.64 92 1009.7
20260903074748 56 275 4.0 13.0 0.00 0.64 0.64 92 1009.6
20260903074236 57 194 0.0 10.0 0.00 0.64 0.64 92 1009.7
20260903073722 56 214 3.0 10.0 0.00 0.64 0.64 92 1009.7
20260903073209 56 288 0.0 14.0 0.00 0.64 0.64 92 1009.8
20260903072656 57 0 0.0 14.0 0.00 0.64 0.64 92 1009.7
20260903072143 57 154 3.0 14.0 0.00 0.64 0.64 92 1009.7
20260903071630 57 169 4.0 14.0 0.00 0.64 0.64 92 1009.7
20260903071117 56 233 1.0 14.0 0.00 0.64 0.64 92 1009.8
20260903070604 56 261 3.0 14.0 0.00 0.64 0.64 92 1009.8
20260903070051 56 148 3.0 13.0 0.00 0.64 0.64 92 1009.8
20260903065538 57 278 3.0 13.0 0.00 0.64 0.64 92 1009.7
20260903065026 56 151 2.0 13.0 0.00 0.64 0.64 92 1009.7
20260903063959 56 0 4.0 11.0 0.00 0.64 0.64 92 1009.7
20260903063446 57 130 6.0 11.0 0.00 0.64 0.64 92 1009.7
20260903062933 56 154 3.0 11.0 0.00 0.64 0.64 92 1009.8
20260903062420 57 219 2.0 11.0 0.00 0.64 0.64 93 1009.8
20260903061907 57 155 2.0 8.0 0.00 0.64 0.64 92 1009.9
20260903061354 57 179 4.0 15.0 0.00 0.64 0.64 92 1009.8
20260903060841 56 217 0.0 15.0 0.00 0.64 0.64 92 1009.9
20260903060328 56 198 4.0 15.0 0.00 0.64 0.64 93 1009.8
20260903055815 57 133 2.0 12.0 0.00 0.64 0.64 93 1009.9
20260903055302 57 93 2.0 12.0 0.00 0.64 0.64 93 1009.9
20260903054748 57 250 2.0 9.0 0.00 0.64 0.64 93 1009.8
20260903054236 57 278 4.0 9.0 0.00 0.64 0.64 93 1009.8
20260903053722 56 144 1.0 13.0 0.00 0.64 0.64 93 1009.8
20260903053209 57 212 1.0 13.0 0.00 0.64 0.64 93 1009.8
20260903052656 57 162 0.0 4.0 0.00 0.64 0.64 93 1009.9
20260903052144 57 184 4.0 13.0 0.00 0.64 0.64 93 1009.9
20260903051631 57 180 0.0 13.0 0.00 0.64 0.64 93 1009.9
20260903051117 57 190 1.0 13.0 0.00 0.64 0.64 93 1009.9
20260903050604 57 270 0.0 11.0 0.00 0.64 0.64 93 1009.7
20260903050051 57 222 0.0 8.0 0.00 0.64 0.64 93 1009.8
20260903045539 57 142 2.0 8.0 0.00 0.64 0.64 93 1009.8
20260903045026 57 250 0.0 8.0 0.00 0.64 0.64 93 1009.9
20260903044512 56 133 1.0 9.0 0.00 0.64 0.64 93 1009.9
20260903043959 57 201 1.0 9.0 0.00 0.64 0.64 93 1009.8
20260903043446 56 0 5.0 9.0 0.00 0.64 0.64 93 1009.8
20260903042934 56 201 0.0 9.0 0.00 0.64 0.64 93 1009.7
20260903042420 56 284 0.0 9.0 0.00 0.64 0.64 93 1009.7
20260903041907 56 161 3.0 12.0 0.00 0.64 0.64 93 1009.7
20260903041355 56 156 0.0 12.0 0.00 0.64 0.64 93 1009.7
20260903040841 56 175 4.0 12.0 0.00 0.64 0.64 93 1009.6
20260903040329 56 159 0.0 11.0 0.00 0.64 0.64 93 1009.6
20260903035816 56 236 3.0 11.0 0.00 0.64 0.64 93 1009.5
20260903035306 56 246 6.0 11.0 0.00 0.64 0.64 93 1009.5
20260903034749 57 281 4.0 10.0 0.00 0.64 0.64 93 1009.6
20260903034236 56 189 0.0 13.0 0.00 0.64 0.64 93 1009.4
20260903033723 57 135 1.0 13.0 0.00 0.64 0.64 93 1009.4
20260903033210 57 190 3.0 13.0 0.00 0.64 0.64 93 1009.4
20260903032657 56 299 1.0 12.0 0.00 0.64 0.64 93 1009.3
20260903032144 57 182 0.0 12.0 0.00 0.64 0.64 93 1009.3
20260903031631 56 201 0.0 19.0 0.00 0.64 0.64 93 1009.3
20260903031118 56 168 3.0 19.0 0.00 0.64 0.64 93 1009.2
20260903030605 56 197 3.0 19.0 0.00 0.64 0.64 93 1009.3
20260903030052 56 154 2.0 12.0 0.00 0.64 0.64 93 1009.2
20260903025539 56 298 0.0 12.0 0.00 0.64 0.64 93 1009.2
20260903025026 56 215 5.0 12.0 0.00 0.64 0.64 93 1009.1
20260903024514 56 0 2.0 10.0 0.00 0.64 0.64 93 1009.1
20260903024000 57 0 4.0 4.0 0.00 0.64 0.64 93 1009.1
20260903023447 56 0 3.0 13.0 0.00 0.64 0.64 93 1009.2
20260903022935 56 215 5.0 13.0 0.00 0.64 0.64 93 1009.0
20260903022421 57 168 1.0 13.0 0.00 0.64 0.64 93 1009.0
20260903021909 57 256 0.0 15.0 0.00 0.64 0.64 93 1009.0
20260903021355 57 210 3.0 15.0 0.00 0.64 0.64 93 1009.0
20260903020842 57 208 5.0 15.0 0.00 0.64 0.64 93 1008.9
20260903020329 57 173 5.0 13.0 0.00 0.64 0.64 93 1009.0
20260903015817 57 215 0.0 13.0 0.00 0.64 0.64 93 1009.1
20260903015305 57 226 0.0 8.0 0.00 0.64 0.64 94 1009.0
20260903014750 57 205 0.0 5.0 0.00 0.64 0.64 94 1009.1
20260903014237 57 264 1.0 10.0 0.00 0.64 0.64 94 1009.1
20260903013724 57 193 1.0 10.0 0.00 0.64 0.64 94 1009.0
20260903013212 57 163 0.0 10.0 0.00 0.64 0.64 94 1009.0
20260903012659 57 224 3.0 8.0 0.00 0.64 0.64 93 1008.9
20260903012146 58 194 0.0 7.0 0.00 0.64 0.64 93 1008.9
20260903011632 58 215 1.0 4.0 0.00 0.64 0.64 94 1008.9
20260903010053 58 120 1.0 13.0 0.00 0.64 0.64 94 1008.8
20260903005540 58 0 0.0 10.0 0.00 0.64 0.64 94 1008.8
20260903005027 58 201 1.0 10.0 0.00 0.64 0.64 94 1008.8
20260903004514 57 0 0.0 10.0 0.00 0.64 0.64 94 1008.8
20260903004001 58 0 1.0 10.0 0.00 0.64 0.64 94 1008.8
20260903003448 58 0 0.0 13.0 0.00 0.64 0.64 94 1008.8
20260903002935 59 238 1.0 13.0 0.00 0.64 0.64 94 1008.7
20260903002422 59 268 3.0 13.0 0.00 0.64 0.64 94 1008.7
20260903001909 58 296 2.0 7.0 0.00 0.64 0.64 95 1008.7
20260903001356 58 233 0.0 5.0 0.00 0.64 0.64 95 1008.6
20260903000843 58 281 1.0 5.0 0.00 0.64 0.64 95 1008.6
20260903000332 58 0 0.0 0.0 0.00 0.64 0.64 95 1008.5
20260902235817 57 0 0.0 0.0 0.01 0.64 0.64 95 1008.5
20260902235306 57 0 0.0 0.0 0.01 0.64 0.64 95 1008.4
20260902234751 58 0 0.0 3.0 0.03 0.64 0.64 95 1008.4
20260902234238 57 0 0.0 3.0 0.03 0.64 0.64 95 1008.3
20260902233725 56 218 0.0 3.0 0.03 0.64 0.64 95 1008.2